#timestamp,LO_Frequency,Hit,StdDev 
1579863615.0,286047000.6,N
1579863615.9,286047000.6,N
1579863635.8,286046999.7,N
1579863655.6,286047000.9,N
1579863675.4,286047001.0,N
1579863695.3,286046999.8,N
1579863745.2,286047004.2,E
1579863755.1,286047000.6,N
1579863756.0,286047000.6,P
1579863775.8,286047001.2,P
1579863795.7,286047001.1,Y
1579863815.5,286047000.8,P
1579863835.3,286047000.6,P
1579863855.2,286046998.8,P
1579863875.0,286047001.2,N
1579863875.9,286047001.2,N
1579863895.7,286047000.6,N
1579863915.6,286047001.0,N
1579863935.4,286047001.2,N
1579863955.3,286046998.6,N
1579863975.1,286046996.6,Y
1579863995.8,286046996.6,P
1579864015.7,286046998.8,N
1579864035.5,286046998.4,N
1579864055.4,286046998.5,N
1579864075.2,286046999.8,N
1579864095.0,286047002.0,N
1579864095.9,286047002.0,N
1579864115.8,286047001.5,N
1579864135.6,286047003.7,N
1579864155.4,286047003.4,N
1579864175.3,286047000.5,N
1579864195.1,286047000.9,N
1579864215.9,286046996.5,N
1579864235.7,286046996.6,N
1579864255.5,286046998.6,N
1579864275.4,286047000.4,N
1579864295.2,286047001.5,N
1579864315.0,286047002.2,N
1579864315.9,286047002.2,N
1579864335.8,286046999.8,N
1579864355.6,286047004.3,N
1579864375.5,286047003.5,N
1579864395.3,286047003.3,N
1579864415.1,286047005.3,N
1579864435.1,286047006.0,N
1579864436.0,286047006.0,N
1579864455.8,286047006.0,N
1579864475.7,286047001.5,N
1579864495.5,286047003.8,N
1579864515.3,286047003.7,N
1579864535.2,286047001.4,N
1579864555.0,286047001.3,N
1579864555.9,286047001.3,N
1579864575.8,286047005.7,N
1579864595.6,286047003.4,N
1579864615.4,286047005.8,N
1579864635.3,286047003.6,N
1579864655.1,286047003.6,N
1579864675.9,286047004.1,N
1579864695.7,286047002.9,N
1579864715.5,286047003.2,N
1579864735.4,286047003.7,N
1579864755.2,286047003.8,N
1579864775.0,286047005.8,N
1579864776.0,286047005.8,Y
1579864795.8,286047002.0,P
1579864815.6,286046999.7,N
1579864835.5,286047002.4,N
1579864855.3,286047000.1,N
1579864875.1,286047000.7,N
1579864895.9,286046998.7,N
1579864915.7,286047000.7,N
1579864935.6,286047000.3,N
1579864955.4,286047002.2,N
1579864975.2,286047001.4,N
1579864995.1,286047001.3,N
1579864996.0,286047001.3,N
1579865015.8,286047003.7,Y
1579865035.7,286047001.8,P
1579865055.5,286047004.1,P
1579865075.3,286047002.2,N
1579865095.2,286047002.0,N
1579865115.0,286047001.9,N
1579865115.9,286047001.9,N
1579865135.8,286047004.3,Y
1579865155.6,286047000.5,P
1579865175.4,286047000.5,N
1579865195.3,286046999.8,N
1579865245.1,286046997.1,E
1579865255.1,286047000.5,N
1579865256.0,286047000.5,P
1579865275.8,286047003.1,P
1579865295.6,286047001.4,N
1579865315.5,286047003.5,Y
1579865335.3,286047001.4,P
1579865355.2,286047000.2,P
1579865375.9,286047002.8,P
1579865395.7,286047002.1,N
1579865415.6,286047001.8,N
1579865435.4,286047003.6,Y
1579865455.2,286047001.8,P
1579865475.1,286046999.7,P
1579865476.0,286046999.7,N
1579865495.8,286047002.8,N
1579865515.7,286046999.7,N
1579865535.5,286047002.3,N
1579865555.3,286047004.4,Y
1579865575.2,286047001.9,P
1579865595.0,286047001.3,P
1579865595.9,286047001.3,P
1579865615.8,286047004.3,Y
1579865635.6,286047002.8,P
1579865655.4,286047004.8,P
1579865675.3,286047005.3,P
1579865695.1,286047007.6,Y
1579865715.9,286047001.1,P
1579865735.7,286046996.8,N
1579865755.5,286046997.7,N
1579865775.4,286046999.4,N
1579865795.2,286046999.5,N
1579865815.0,286046996.5,N
1579865815.9,286046996.5,N
1579865835.8,286046999.3,N
1579865855.6,286046995.9,N
1579865875.5,286046993.7,N
1579865895.3,286046996.4,N
1579865915.1,286046993.9,N
1579865935.9,286046996.0,N
1579865955.7,286046996.0,N
1579865975.5,286046993.7,N
1579865995.4,286046995.9,N
1579866015.2,286046998.0,N
1579866035.1,286046997.0,N
1579866036.0,286046997.0,N
1579866055.8,286046997.3,N
1579866075.6,286046996.1,N
1579866095.5,286046997.2,N
1579866115.3,286046996.5,N
1579866135.1,286046997.8,N
1579866155.9,286046997.6,N
1579866175.7,286046999.4,N
1579866195.6,286046996.5,N
1579866215.4,286046998.7,N
1579866235.2,286046998.1,N
1579866255.1,286047000.5,N
1579866256.0,286047000.5,N
1579866275.8,286046999.9,N
1579866295.6,286047001.0,N
1579866315.5,286047004.2,N
1579866335.3,286046999.8,N
1579866355.2,286046998.6,N
1579866375.9,286047000.0,N
1579866395.7,286046998.8,N
1579866415.6,286046999.0,N
1579866435.4,286046996.9,N
1579866455.2,286046998.0,N
1579866475.1,286046998.2,N
1579866476.0,286046998.2,N
1579866495.8,286047001.2,N
1579866515.7,286046999.9,N
1579866535.5,286046998.7,N
1579866555.3,286046996.6,N
1579866575.2,286046999.5,N
1579866595.0,286047001.2,N
1579866595.9,286047001.2,N
1579866615.8,286047002.8,N
1579866635.6,286047000.4,N
1579866655.4,286046998.5,N
1579866675.3,286046995.8,N
1579866695.1,286046993.4,Y
1579866715.9,286046996.5,P
1579866735.7,286046997.6,N
1579866755.5,286046997.9,N
1579866775.4,286046997.9,N
1579866795.2,286046997.1,Y
1579866815.1,286046998.6,P
1579866816.0,286046998.6,P
1579866865.8,286046996.9,E
1579866875.7,286046998.3,N
1579866895.6,286046998.8,P
1579866915.4,286047002.6,P
1579866935.3,286047002.4,N
1579866955.1,286047000.6,N
1579866975.8,286047003.9,N
1579866995.7,286047003.5,N
1579867015.5,286047001.5,N
1579867035.4,286047001.4,N
1579867055.2,286047003.8,N
1579867075.0,286047005.4,N
1579867075.9,286047005.4,N
1579867095.8,286047004.9,N
1579867115.6,286047006.0,N
1579867135.5,286047003.2,N
1579867155.3,286047003.2,N
1579867175.1,286047004.7,N
1579867195.9,286047006.8,Y
